sat.trackr.live / text

‹ back to catalog

STARLINK-34480

NORAD 64427 · 2025-129R

PAYLOAD ACTIVE UNKNOWN

§ Identity

Operator
Country
US
Launch date
2025-06-17
Launch site
AFWTR
Launch vehicle
Mass (kg)
RCS (m²)

Purposes: comms

External: N2YO · Heavens-Above · Gunter

§ Orbital elements

Epoch: 2026-05-24T18:07:27.529536Z

Period
96.11 min
Inclination
70.0004°
Eccentricity
0.0003316
Mean motion
14.98339027 rev/d
Perigee alt
569.7 km
Apogee alt
574.3 km
Semi-major
6,950.2 km
B*
2.9725e-4
RAAN
242.5611°
Arg perigee
268.9169°
Mean anomaly
91.1610°
Rev number
5,268

§ Raw data

STARLINK-344801 64427U 25129R   26144.75517974  .00003456  00000+0  29725-3 0  99992 64427  70.0004 242.5611 0003316 268.9169  91.1610 14.98339027 52686

JSON: /api/v1/satellites/64427 · /tle

For live sub-satellite position, see the globe view (requires WebGL).

§ Visibility from observer

Set your observer location to see the next 7 days of passes ≥ 10°. The values pass through the URL so the page stays shareable.

No JS? Fill the form by hand. The geolocation button needs JavaScript.